timestamp,gas_concentrations,,corrected_fluxes_and_quality_flags,,,,,,,,,,storage_terms,,,turbulence,,,footprint,,
ISOdate,CO2_1_1_1,H2O_1_1_1,Tau_1_1_1,QcTau_1_1_1,H_1_1_1,QcH_1_1_1,LE_1_1_1, QcLE_1_1_1,Fc_1_1_1, QcFc_1_1_1,E_1_1_1, QcE_1_1_1,Sa_1_1_1,Sw_1_1_1,Sc_1_1_1,ustar_1_1_1,MO_length_1_1_1,ZL_1_1_1,Fetchmax_1_1_1,Fetch70_1_1_1,Fetch90_1_1_1
yyyymmddHHMM,[µmol+1mol_a-1],[mmol+1mol_a-1],[kg+1m-1s-2],[#],[W+1m-2],[#],[W+1m-2],[#],[µmol+1s-1m-2],[#],[mmol+1s-1m-2],[#],[W+1m-2],[W+1m-2],[µmol+1s-1m-2],[m+1s-1],[m],[#],[m],[m],[m]
201401020030,388.86533722519920,0.91010553887935108,9.32750266801871640E-003,1,-62.361938718972759,1,-9.04016764826992558E-003,1,-4.1147008492231292,1,-1.96990831458996864E-004,1,-9999.,-9999.,-9999.,8.40851882942195983E-002,0.80632554192412709,26.788187744190918,73.591821843307613,435.00000000000000,1533.0000000000000
201401020100,388.98634118437809,0.91478480745294888,0.12748464993539901,1,-66.507910914488249,1,0.59005532017851881,1,-3.3133514918745850,2,1.28539094403857090E-002,1,-8.1163654481441014,0.19050750083204770,0.10731889507803434,0.31069176176973473,38.136454627545184,0.56638720643944607,142.06357634549420,259.73752641335932,389.13414494141421
201401020130,388.99435413218106,0.91493541720735050,0.25649189745168238,1,103.38582878061617,1,1.2585188754559591,1,3.9369587297751503,1,2.74101878260455852E-002,1,-5.7719431582775771,6.13867937839849241E-003,7.11322329779353387E-003,0.44049285595393906,-69.918164466109559,-0.30893259519805993,195.00343506334198,356.52847245153163,534.14461972622951
201401020200,389.17119816275840,0.93285345443714485,3.16841514524034227E-003,1,1.6377568113558685,1,0.56894828644341500,1,0.14196239960319168,1,1.23929787347759335E-002,1,3.2381622505285446,0.73000172775573136,0.15693751398926770,4.89658658445147679E-002,-6.0634784303456364,-3.5623116744176722,125.28669254205943,361.00000000000000,770.00000000000000
201401020230,389.39196464300420,0.94906030785316209,2.95229839702919198E-003,1,1.3521671437232217,1,-0.17776861558940288,2,5.66358980884362762E-006,1,-3.87195703295074942E-003,2,-1.7575167220002812,0.66056742699720150,0.19598689074064926,4.72579732345515882E-002,-6.6026153249630317,-3.2714309310638114,217.96154055207350,620.00000000000000,1313.0000000000000
201401020300,389.59596160392306,0.99753813698690152,1.15247758926440708E-002,1,-0.51136714080971857,2,0.10010878470836078,1,2.47488853961439319E-002,2,2.18047982182548129E-003,1,0.28425949208346230,1.9755394265907773,0.18106984016102207,9.33793673959797815E-002,134.68112041191301,0.16037882617799640,206.15207246498647,1785.0000000000000,8391.0000000000000
201401020330,389.76945671293936,0.97464490182848040,8.68375212101810123E-002,1,3.0508013622081442,2,-0.33257999821524581,1,-7.54739462387674642E-002,2,-7.24198336401434863E-003,1,-7.5874184438977759,-0.93407180030885129,0.15414226058802791,0.25620079790903277,-466.17294006049855,-4.63347357682254504E-002,159.66259580610827,291.91414690673361,437.34058578842149
201401020400,389.64491575466371,0.98302602042445264,0.59897574646164942,1,-188.34930626008327,1,-1.8044672027690394,1,-12.258817250997986,2,-3.92955501696854309E-002,1,2.1112937441438508,0.34175328032826113,-0.11059036450437557,0.67304914484370604,136.87775191618854,0.15780504645653351,175.57420554118684,321.00564425009975,480.92494997367288
201401020430,388.98938870154871,0.99749987714638810,0.32460401568380248,1,63.870444972251327,1,1.2977213387461397,1,1.5871476919192216,1,2.82655050763739556E-002,1,5.1738538912705723,0.58948132380184792,-0.58150265872746232,0.49572667812293336,-161.25500188016281,-0.13394933334255338,307.60140134573982,562.39346609522033,842.56789371790092
201401020500,389.91815121630185,0.94874743910362258,0.75747729434349298,1,-100.49590935500503,1,2.1424213529323883,2,-6.7697842117594496,1,4.66409744135720464E-002,2,-13.622158122365102,-1.9907760351454751,0.82564521949134551,0.75645360919126625,364.16470589434647,5.93138205058968970E-002,204.01394627747979,373.00256070613312,558.82580590354598
201401020530,390.01645888948656,0.94359682632961350,0.31305252179248677,1,69.147135175499571,1,2.5272167244042074,1,2.2903411977073875,1,5.50144209272542956E-002,1,-1.8384725028580884,-0.21043974568512380,8.74360125584790759E-002,0.48618169400745248,-140.53556877132539,-0.15369774491144497,178.35403768242546,326.08806398627286,488.53934087659388
201401020600,389.92096452690669,0.94696236109775900,1.2838691917126781,1,-86.021426932164999,1,4.9650890887170718,1,-25.072878660207547,1,0.10809182962016098,1,2.0365714056816597,0.13746781021684015,-8.49161880090611304E-002,0.98468143498714966,938.59396878465077,2.30131459591297084E-002,230.80940344533113,421.99320238170833,632.22271439730309
201401020630,388.76547878777171,1.0090256718376154,0.53387957518223494,1,-166.69708510320473,1,1.4743720680187709,1,-7.3086349857300394,1,3.21215981898820627E-002,1,20.715102908715398,2.5252006677149974,-1.0242726981958856,0.63597930903662614,130.50124996703633,0.16551565602211477,323.36368485879098,591.21194747956451,885.74323024651596
201401020700,388.22370176117585,1.0068745303355660,0.55631197091341023,1,-134.14507307383542,1,-5.44418590071421640E-002,1,-6.6822690125862012,1,-1.18626135235153259E-003,1,3.6625716264276367,-8.74618138114472837E-002,-0.47997378828514708,0.64939268927708105,172.64481283460773,0.12511236014193267,256.52954175015719,469.01781822031205,702.67415793046348
201401020730,388.30657409413419,0.98921946705859032,0.60804836276179886,1,-177.00804673326977,1,-0.48030330536828597,1,-9.1536905280800536,1,-1.04658164594735332E-002,1,0.64472898500971598,-0.71771037085995759,7.34086178352367780E-002,0.67896209724057455,149.53286360161877,0.14444985189039186,316.70023152369072,579.02902958356106,867.49099921999857
201401020800,388.35285376581737,0.96858754596596108,0.48189016227808951,1,-141.47944069065269,1,-0.55552400998629603,1,-7.5487030388622491,2,-1.21051095866191710E-002,1,0.53296169301898666,-0.83868905362349511,4.09937329161922104E-002,0.60444104327911452,132.00128813349801,0.16363476679223832,316.15830898376470,578.03822234324684,866.00658942528992
201401020830,388.46305367326727,0.95974541007166259,0.43733361714294128,1,-171.79056217164438,1,-1.1970432024913871,2,-8.7873853039340375,1,-2.60837112803679744E-002,2,-0.40405448245255360,-0.35947044320568416,9.76217955173456498E-002,0.57579307769196075,93.976076771257468,0.22984573034023856,216.94727977232026,396.64881920985590,594.25221005458093
201401020900,388.53337800414624,0.97524939197730742,0.31192285623749155,1,-130.05121896805221,1,-1.1813358047017934,2,-6.4753479864189654,1,-2.57406387880997241E-002,2,-0.86856615033137508,0.63052356793314313,6.23174441964012907E-002,0.48620077815879204,74.749532731529001,0.28896501704671157,211.34462567358801,386.40538064249694,578.90567248177945
201401020930,388.72906504752166,1.0031218331286444,2.44275346612063370E-002,1,7.6453168132940821,1,3.0159174614003823,1,0.52846417834368564,2,6.57307122916255954E-002,1,6.5659324729507169,1.1325296725901226,0.17329480378105458,0.13610511176708984,-27.900820107364343,-0.77417079200115491,72.897838366770415,235.00000000000000,541.00000000000000
201401021000,390.32275464470683,1.0472172808771509,2.77207684640374888E-002,1,34.078536317026796,1,5.9764475522168725,1,2.0012869405871250,1,0.13029272329575387,1,8.1645642495023800,1.7893132508569349,1.4098516211148766,0.14506671332222332,-7.5801528396612428,-2.8495467646751704,39.920195996215760,122.00000000000000,272.00000000000000
201401021030,391.83868575417722,1.0722804948014211,0.15418119176580589,1,124.25677042793512,0,13.704074892414424,1,0.94684394184068932,1,0.29879533658404150,1,2.9951834590325608,1.0165437238687465,1.3405803815361441,0.34218505281571349,-27.286686666126702,-0.79159482660142566,109.16196674566194,199.58289063468945,299.01153893514203
201401021100,390.58859535932368,1.0865212390147572,0.16524451572201707,1,102.84380521954641,0,15.269084324558635,0,-0.10908607225003575,0,0.33305730886815355,0,11.552990985058887,0.57613349624839272,-1.1031582905251738,0.35462432524416587,-36.686823278911461,-0.58876724855095974,113.42353713549026,207.37440046546058,310.68464046062030
201401021130,389.94132349987609,1.0947682172825488,0.23055328609872469,1,175.12059945022429,1,22.715558309628776,0,-3.5243891606448141,1,0.49576697988865537,0,15.710775104286103,0.33245513811456179,-0.56948082768433372,0.41951099488805016,-35.652655587503602,-0.60584547333329319,113.96241003193997,208.35963198486607,312.16069680937846
201401021200,388.77134867297383,1.0392678620738853,0.31976317070828059,0,93.646161521198422,0,14.063456301818929,0,-1.3292653396133209,0,0.30698848778626703,0,4.7934765771960910,-2.2345806903611152,-1.0282691775149395,0.49430885643357964,-109.04317055965727,-0.19808668336714119,121.37787362064334,221.91746446582511,332.47280042639966
201401021230,388.33294485118410,1.0345080333462053,0.53965709829060082,0,97.549232453689868,0,19.777787674817642,0,-1.1598055311607682,0,0.43176605012550112,0,2.5747020153817233,-0.19153879595120710,-0.38513282841598989,0.64230273778547997,-229.65303492414071,-9.40549294597170932E-002,131.23600156928092,239.94126644458433,359.47574015731834
201401021300,388.27340970648078,1.0204685123804129,0.43248874437541540,0,59.770644117574399,0,12.231157851580173,0,-0.73576500894794838,0,0.26699508136321232,0,-2.2175383917906286,-0.56523836249037418,-5.23224947471397916E-002,0.57488061803172685,-268.74674411163278,-8.03730667376112706E-002,120.70660156747681,220.69016506139602,330.63408227533216
201401021330,388.26224933756129,1.0419770619223863,0.39057245818703962,0,49.508282756036486,0,15.492922487319854,0,-1.1497445306417933,0,0.33822913275429450,0,2.6510116281455014,0.86536706595345869,-9.80269417376332386E-003,0.54647072311242473,-278.65781668142722,-7.75144234503709895E-002,118.10484967606617,215.93333281769114,323.50748076593760
201401021400,388.35732722690540,1.0411135418550692,0.58551159887443049,0,88.178318197503145,1,16.392296901513411,1,-1.4357763589504735,1,0.35795667208600429,1,7.1259082760693300,-3.46906036900745257E-002,8.34083644883178293E-002,0.66950247591143630,-287.67267989982912,-7.50853365968619790E-002,126.02939267360367,230.42192482054887,345.21403175335422
201401021430,388.21322033259344,1.0402736610497949,0.43909625203981872,0,32.966569306077993,0,10.315964873743496,0,-0.71348585896819450,0,0.22523302087373465,0,-4.3211084744767598,-3.37830043699559879E-002,-0.12655741021223352,0.57946586601698824,-499.05220340712600,-4.32820451498512962E-002,108.66101663665030,198.66699406557345,297.63935897639965
201401021500,388.12810065858622,1.0536368452516176,0.23779821955621461,0,19.982743140711946,0,7.6967615648817684,0,-0.88095178536921037,0,0.16806565507785171,0,3.0756427367107486,0.53725720409876887,-7.47262492477462625E-002,0.42651389523324590,-328.33234095184326,-6.57870008704627973E-002,99.254478789047056,181.46884281878059,271.87339449522852
201401021530,388.09186209524995,1.0844623732211129,9.91458401464334199E-002,0,-2.3266452741840631,1,4.2621957291022188,1,-0.58738520852426557,0,9.30627131860817525E-002,1,-1.8070952091122494,1.2400122872705339,-3.18294223611109983E-002,0.27533497970639287,758.73940349512293,2.84682723745463724E-002,97.146923235663451,177.61555909682704,266.10047331951529
201401021600,388.19723069576014,1.0946095817638715,6.94174635161783210E-002,0,0.72707579052307769,2,0.44071211182410214,2,-0.65107183964884519,1,9.62090771503014766E-003,2,-5.1358215539876024,0.40861206909127434,9.26268465240284167E-002,0.23029017185743036,-1420.7077266516185,-1.52036901009243875E-002,117.72100097647693,215.23153497257826,322.45605970964749
201401021630,388.25475542663548,1.0983024585973200,1.76097540896609922E-002,1,-7.3029492940591076,1,-0.16373672330350297,1,-0.32917187429002076,1,-3.57305495729113307E-003,1,-10.604184554998389,0.14900103269102846,5.06492072134547000E-002,0.11589689149916353,18.028799513925872,1.1980830993941471,354.94738309294564,3369.0000000000000,-9999.
201401021700,388.11415343487954,1.0977691483023990,1.72889448166011926E-003,1,-2.0024580564520909,0,1.36780084270739510E-002,1,-6.29580227363199935E-002,0,2.98444317985375042E-004,1,-3.3691322086959503,-2.15364501045321420E-002,-0.12388709595874040,3.63012074409096788E-002,2.0207640407364273,10.689026311121564,3040.5263437631052,-9999.,-9999.
201401021730,388.06453353362093,1.0961510703331616,1.15370941681017126E-002,1,2.0352358974885147,2,-0.24040372574874136,1,-4.17812889414255484E-003,1,-5.24529810884420602E-003,1,-0.72678955480371332,-6.53390967866823158E-002,-4.37178262084813307E-002,9.37779814793741201E-002,-34.272540261835118,-0.63024216573911562,138.31353452448013,438.00000000000000,995.00000000000000
201401021800,388.03444086943438,1.1049174594603606,4.42596244291620314E-003,1,0.20875043746734265,2,-7.52171672680813780E-002,2,3.73593963853947886E-002,2,-1.64105967018717555E-003,2,-1.3683480487008906,0.35408076910513264,-2.65185414241532816E-002,5.80783244597275622E-002,-79.372582802163222,-0.27213427152595210,253.18607367792978,848.00000000000000,2001.0000000000000
201401021830,388.25531114990065,1.1044820828386428,7.82980551011843752E-003,1,-1.9731591828737656,1,-0.16506293639826586,1,0.12094017848116156,1,-3.60100438101298645E-003,1,-2.1129698411534159,-1.75913796084727868E-002,0.19469112781790288,7.72370585564259859E-002,19.749494790051124,1.0936988631669240,352.10723396990210,3390.0000000000000,-9999.
201401021900,388.37356114063630,1.1104084036279014,2.28158446317785818E-003,1,-1.5689300623682945,1,-0.15448550007019815,1,4.02722524078947680E-002,1,-3.36978291774193929E-003,1,-3.8000163731006742,0.23959942766896786,0.10428358127057952,4.16836777028489133E-002,3.9039342467690497,5.5328800729357726,1944.2987088202317,-9999.,-9999.
201401021930,388.56304182519580,1.1092429877388392,5.01765623945426079E-003,1,-0.70354738507569992,1,-0.11430340960906471,1,2.84425594612287558E-002,1,-2.49300464224493784E-003,1,-3.1940365133676587,-4.71477127227863252E-002,0.16718932358337740,6.17993238439663722E-002,28.371184180615494,0.76133586326502800,356.93665641571397,3618.0000000000000,-9999.
201401022000,388.83591849441865,1.1085699537415137,8.94611531249505862E-003,1,-6.8934640601808210,0,-0.63357000401727337,0,0.30590810156769327,1,-1.38164247804431640E-002,0,-3.9918710730613198,-2.72420195323119299E-002,0.24086282299590447,8.25031587152192658E-002,6.8884003238779856,3.1357062575364054,464.57725836832043,3781.0000000000000,-9999.
201401022030,388.82693251530992,1.1072924177550005,3.49089825068773438E-002,0,-34.218258343559043,0,-2.7677946967308533,0,-0.37549384189605228,0,-6.03416230028256811E-002,0,-7.5056662038885333,-5.17945909294545773E-002,-7.94254682357101692E-003,0.16286445656704318,10.676550687656203,2.0231253175216084,337.58206920783039,2881.0000000000000,-9999.
201401022100,388.61009888411934,1.0796381557286878,5.28435665426544854E-002,0,-35.406824179183062,0,-2.4080475192612156,0,-0.83684021557100019,0,-5.24828539083957504E-002,0,-8.3296359197392817,-1.1227403185572515,-0.19186522985211488,0.20026906959809632,19.182571823031221,1.1260221100314785,251.64208278980266,2295.0000000000000,-9999.
201401022130,388.84200520184106,1.0443700115793666,5.60036027154056787E-002,0,-25.582555370105236,0,-2.6913670911591487,0,-0.14114978016995461,0,-5.86382550390759927E-002,0,-9.2113708605226581,-1.4345884299946825,0.20552535031840657,0.20600668550362999,28.900188729110418,0.74739996345570148,98.058158881828845,179.28158848172075,268.59648892838857
201401022200,388.83562677585849,0.98628562300411982,6.93009698283201941E-002,0,-18.869092143730114,0,-3.0285391030774154,0,0.60780620413311770,0,-6.59488514878105031E-002,0,-14.980951421112717,-2.3691760163916049,-5.66533345207860875E-003,0.22890677507607346,53.752199138732628,0.40184402398590474,116.40469661061103,212.82491077803004,318.85049812186810
201401022230,388.37469202884068,0.97405319779376998,6.87303310091877950E-002,0,-28.831514642096945,0,-3.5597431646904845,0,3.79377394770306076E-002,0,-7.75089387382378869E-002,0,-2.6205525388911903,-0.49902458901566377,-0.40943215795258847,0.22795384964415183,34.732914795639573,0.62188849185533090,107.01485912173827,195.65729311330276,293.13027851057836
201401022300,388.36557955994846,0.92217331359549082,0.18097215398430169,1,-66.968841802665736,0,-5.4528851562243359,0,-1.5932331015034038,0,-0.11867267619859681,0,-13.395295418001513,-2.1214953456116326,-8.10967648088488369E-003,0.36954033263338942,63.698732978393394,0.33909622672285678,130.63473540566949,238.84196013349529,357.82877898346953
201401022330,388.63872987093725,0.89959568419260316,0.44663854028919986,1,-149.18089441937931,1,-6.6174061584055321,1,-6.4365082095768740,1,-0.14398502548872588,1,-6.0934689848627475,-0.92417215966145172,0.24327964699387045,0.58031514824859842,110.72512000253812,0.19507768426446384,162.36561512342561,296.85612830258492,444.74457446632425
201401030000,389.14720856275744,0.86301905685553693,1.2825743356583195,1,-401.99553815561183,1,-5.3483752411279024,1,-20.245111854986821,1,-0.11633011576740825,1,-10.247584246436414,-1.4998034382443599,0.45349628757387361,0.98271057112266791,199.50818645446941,0.10826623400202892,189.00195737638575,345.55585716663973,517.70564255716886
